Time,TemperatureF,DewpointF,PressureIn,WindDirection,WindDirectionDegrees,WindSpeedMPH,WindSpeedGustMPH,Humidity,HourlyPrecipIn,Conditions,Clouds,dailyrainin,SoftwareType,DateUTC
2013-07-22 00:01:00,73.0,72.0,29.89,North,0,0.0,0.0,98,0.00,,,0.02,,2013-07-22 04:01:00,
2013-07-22 00:12:00,73.0,72.0,29.89,North,0,0.0,0.0,98,0.00,,,0.02,,2013-07-22 04:12:00,
2013-07-22 00:22:00,73.0,72.0,29.89,North,0,0.0,0.0,98,0.00,,,0.02,,2013-07-22 04:22:00,
2013-07-22 00:33:00,73.0,72.0,29.89,North,0,0.0,0.0,98,0.00,,,0.02,,2013-07-22 04:33:00,
2013-07-22 00:43:00,72.0,71.0,29.88,North,0,0.0,0.0,98,0.00,,,0.02,,2013-07-22 04:43:00,
2013-07-22 01:02:00,72.0,71.0,29.89,North,0,0.0,0.0,98,0.00,,,0.02,,2013-07-22 05:02:00,
2013-07-22 01:11:00,72.0,71.0,29.89,North,0,0.0,0.0,98,0.00,,,0.02,,2013-07-22 05:11:00,
2013-07-22 01:22:00,72.0,71.0,29.89,North,0,0.0,0.0,98,0.00,,,0.02,,2013-07-22 05:22:00,
2013-07-22 01:32:00,72.0,71.0,29.89,North,0,0.0,0.0,98,0.00,,,0.02,,2013-07-22 05:32:00,
2013-07-22 01:43:00,72.0,71.0,29.88,North,0,0.0,0.0,98,0.00,,,0.02,,2013-07-22 05:43:00,
2013-07-22 01:52:00,72.0,71.0,29.88,North,0,0.0,0.0,98,0.00,,,0.02,,2013-07-22 05:52:00,
2013-07-22 02:01:00,72.0,71.0,29.88,North,0,0.0,0.0,98,0.00,,,0.02,,2013-07-22 06:01:00,
2013-07-22 02:11:00,72.0,71.0,29.88,North,0,0.0,0.0,98,0.00,,,0.02,,2013-07-22 06:11:00,
2013-07-22 02:22:00,72.0,71.0,29.88,North,0,0.0,0.0,98,0.00,,,0.02,,2013-07-22 06:22:00,
2013-07-22 02:33:00,72.0,71.0,29.87,North,0,0.0,0.0,98,0.00,,,0.02,,2013-07-22 06:33:00,
2013-07-22 02:43:00,72.0,71.0,29.87,North,0,0.0,0.0,98,0.00,,,0.02,,2013-07-22 06:43:00,
2013-07-22 02:52:00,72.0,71.0,29.86,North,0,0.0,0.0,98,0.00,,,0.02,,2013-07-22 06:52:00,
2013-07-22 03:01:00,72.0,71.0,29.86,North,0,0.0,0.0,98,0.00,,,0.02,,2013-07-22 07:01:00,
2013-07-22 03:12:00,72.0,71.0,29.86,North,0,0.0,0.0,98,0.00,,,0.02,,2013-07-22 07:12:00,
2013-07-22 03:22:00,72.0,71.0,29.86,North,0,0.0,0.0,98,0.00,,,0.02,,2013-07-22 07:22:00,
2013-07-22 03:43:00,71.0,70.0,29.85,North,0,0.0,0.0,98,0.00,,,0.02,,2013-07-22 07:43:00,
2013-07-22 03:53:00,71.0,70.0,29.85,North,0,0.0,0.0,98,0.00,,,0.02,,2013-07-22 07:53:00,
2013-07-22 04:02:00,71.0,70.0,29.85,North,0,0.0,0.0,98,0.00,,,0.02,,2013-07-22 08:02:00,
2013-07-22 04:11:00,71.0,70.0,29.84,North,0,0.0,0.0,98,0.00,,,0.02,,2013-07-22 08:11:00,
2013-07-22 04:32:00,71.0,70.0,29.84,North,0,0.0,0.0,98,0.00,,,0.02,,2013-07-22 08:32:00,
2013-07-22 04:43:00,71.0,70.0,29.84,North,0,0.0,0.0,98,0.00,,,0.02,,2013-07-22 08:43:00,
2013-07-22 04:52:00,71.0,70.0,29.84,North,0,0.0,0.0,98,0.00,,,0.02,,2013-07-22 08:52:00,
2013-07-22 05:02:00,72.0,71.0,29.84,North,0,0.0,0.0,98,0.00,,,0.02,,2013-07-22 09:02:00,
2013-07-22 05:11:00,72.0,71.0,29.84,North,0,0.0,0.0,98,0.00,,,0.02,,2013-07-22 09:11:00,
2013-07-22 05:22:00,72.0,71.0,29.84,North,0,0.0,1.0,98,0.00,,,0.02,,2013-07-22 09:22:00,
2013-07-22 05:33:00,72.0,71.0,29.84,North,0,0.0,1.0,98,0.00,,,0.02,,2013-07-22 09:33:00,
2013-07-22 05:42:00,72.0,71.0,29.84,North,0,0.0,1.0,98,0.00,,,0.02,,2013-07-22 09:42:00,
2013-07-22 05:52:00,72.0,71.0,29.85,North,0,0.0,1.0,98,0.00,,,0.02,,2013-07-22 09:52:00,
2013-07-22 06:02:00,72.0,71.0,29.85,North,0,0.0,0.0,98,0.00,,,0.02,,2013-07-22 10:02:00,
2013-07-22 06:11:00,72.0,71.0,29.85,North,0,0.0,0.0,98,0.00,,,0.02,,2013-07-22 10:11:00,
2013-07-22 06:22:00,72.0,71.0,29.85,North,0,0.0,0.0,98,0.00,,,0.02,,2013-07-22 10:22:00,
2013-07-22 06:32:00,72.0,71.0,29.85,North,0,0.0,0.0,98,0.00,,,0.02,,2013-07-22 10:32:00,
2013-07-22 06:43:00,72.0,71.0,29.85,North,0,0.0,0.0,98,0.00,,,0.02,,2013-07-22 10:43:00,
2013-07-22 07:23:00,71.0,70.0,29.87,North,0,0.0,0.0,98,0.00,,,0.02,,2013-07-22 11:23:00,
2013-07-22 07:32:00,71.0,70.0,29.87,North,0,0.0,0.0,98,0.00,,,0.02,,2013-07-22 11:32:00,
2013-07-22 07:43:00,71.0,70.0,29.87,North,0,0.0,0.0,98,0.00,,,0.02,,2013-07-22 11:43:00,
2013-07-22 07:52:00,71.0,70.0,29.87,North,0,0.0,0.0,98,0.00,,,0.02,,2013-07-22 11:52:00,
2013-07-22 08:02:00,72.0,72.0,29.88,North,0,0.0,0.0,99,0.00,,,0.02,,2013-07-22 12:02:00,
2013-07-22 08:12:00,72.0,72.0,29.88,North,0,0.0,2.0,99,0.00,,,0.02,,2013-07-22 12:12:00,
2013-07-22 08:22:00,72.0,72.0,29.88,North,0,0.0,2.0,99,0.00,,,0.02,,2013-07-22 12:22:00,
2013-07-22 08:33:00,72.0,72.0,29.88,North,0,0.0,3.0,99,0.00,,,0.02,,2013-07-22 12:33:00,
2013-07-22 08:43:00,72.0,72.0,29.88,North,0,0.0,3.0,99,0.00,,,0.02,,2013-07-22 12:43:00,
2013-07-22 08:53:00,72.0,72.0,29.88,North,0,0.0,3.0,99,0.00,,,0.02,,2013-07-22 12:53:00,
2013-07-22 09:01:00,72.0,72.0,29.88,North,0,0.0,3.0,99,0.00,,,0.02,,2013-07-22 13:01:00,
2013-07-22 09:32:00,74.0,73.0,29.89,North,0,0.0,1.0,97,0.00,,,0.02,,2013-07-22 13:32:00,
2013-07-22 09:43:00,74.0,73.0,29.89,North,0,0.0,1.0,97,0.00,,,0.02,,2013-07-22 13:43:00,
2013-07-22 09:53:00,77.0,75.0,29.89,North,0,0.0,1.0,93,0.00,,,0.02,,2013-07-22 13:53:00,
2013-07-22 10:02:00,77.0,75.0,29.89,North,0,0.0,1.0,93,0.00,,,0.02,,2013-07-22 14:02:00,
2013-07-22 10:11:00,77.0,75.0,29.89,North,0,0.0,1.0,93,0.00,,,0.02,,2013-07-22 14:11:00,
2013-07-22 10:22:00,77.0,75.0,29.89,North,0,0.0,1.0,93,0.00,,,0.02,,2013-07-22 14:22:00,
2013-07-22 10:32:00,77.0,75.0,29.89,North,0,0.0,1.0,93,0.00,,,0.02,,2013-07-22 14:32:00,
2013-07-22 10:43:00,77.0,75.0,29.88,North,0,0.0,1.0,93,0.00,,,0.02,,2013-07-22 14:43:00,
2013-07-22 10:53:00,77.0,75.0,29.88,North,0,0.0,1.0,93,0.00,,,0.02,,2013-07-22 14:53:00,
2013-07-22 11:11:00,77.0,75.0,29.88,North,0,0.0,2.0,94,0.00,,,0.02,,2013-07-22 15:11:00,
2013-07-22 11:22:00,77.0,75.0,29.88,North,0,0.0,4.0,93,0.00,,,0.02,,2013-07-22 15:22:00,
2013-07-22 11:33:00,77.0,75.0,29.88,North,0,0.0,3.0,94,0.00,,,0.02,,2013-07-22 15:33:00,
2013-07-22 11:52:00,78.0,75.0,29.88,SE,144,3.0,10.0,92,0.00,,,0.02,,2013-07-22 15:52:00,
2013-07-22 12:01:00,78.0,75.0,29.88,SE,144,3.0,10.0,92,0.00,,,0.02,,2013-07-22 16:01:00,
2013-07-22 12:11:00,78.0,75.0,29.88,SE,144,3.0,10.0,92,0.00,,,0.02,,2013-07-22 16:11:00,
2013-07-22 12:22:00,78.0,75.0,29.88,SE,144,3.0,10.0,92,0.00,,,0.02,,2013-07-22 16:22:00,
2013-07-22 12:43:00,78.0,75.0,29.88,North,0,0.0,3.0,92,0.00,,,0.02,,2013-07-22 16:43:00,
2013-07-22 12:52:00,78.0,75.0,29.88,North,0,0.0,3.0,92,0.00,,,0.02,,2013-07-22 16:52:00,
2013-07-22 13:02:00,78.0,75.0,29.88,North,0,0.0,4.0,90,0.00,,,0.02,,2013-07-22 17:02:00,
2013-07-22 13:11:00,78.0,75.0,29.88,North,0,0.0,4.0,90,0.00,,,0.02,,2013-07-22 17:11:00,
2013-07-22 13:23:00,78.0,75.0,29.88,North,0,0.0,4.0,90,0.00,,,0.02,,2013-07-22 17:23:00,
2013-07-22 13:32:00,80.0,76.0,29.87,SE,138,1.0,4.0,87,0.00,,,0.02,,2013-07-22 17:32:00,
2013-07-22 13:43:00,81.0,76.0,29.87,North,0,0.0,5.0,85,0.00,,,0.02,,2013-07-22 17:43:00,
2013-07-22 13:52:00,82.0,76.0,29.86,SE,132,1.0,4.0,82,0.00,,,0.02,,2013-07-22 17:52:00,
2013-07-22 14:05:00,81.0,76.0,29.86,SSE,160,1.0,4.0,84,0.00,,,0.02,,2013-07-22 18:05:00,
2013-07-22 14:16:00,81.0,76.0,29.86,SSE,160,1.0,4.0,84,0.00,,,0.02,,2013-07-22 18:16:00,
2013-07-22 14:28:00,81.0,76.0,29.86,SSE,160,1.0,4.0,84,0.00,,,0.02,,2013-07-22 18:28:00,
2013-07-22 14:38:00,81.0,76.0,29.86,SSE,160,1.0,4.0,84,0.00,,,0.02,,2013-07-22 18:38:00,
2013-07-22 14:51:00,85.0,78.0,29.84,SE,144,1.0,5.0,79,0.00,,,0.02,,2013-07-22 18:51:00,
2013-07-22 14:59:00,85.0,79.0,29.84,North,0,0.0,4.0,83,0.00,,,0.02,,2013-07-22 18:59:00,
2013-07-22 15:06:00,85.0,79.0,29.84,North,0,0.0,4.0,83,0.00,,,0.02,,2013-07-22 19:06:00,
2013-07-22 15:25:00,85.0,79.0,29.84,North,0,0.0,4.0,83,0.00,,,0.02,,2013-07-22 19:25:00,
2013-07-22 15:47:00,86.0,78.0,29.82,SSE,158,1.0,4.0,77,0.00,,,0.02,,2013-07-22 19:47:00,
2013-07-22 16:32:00,83.0,76.0,29.80,North,0,0.0,8.0,80,0.00,,,0.02,,2013-07-22 20:32:00,
2013-07-22 16:43:00,83.0,76.0,29.80,North,0,0.0,8.0,80,0.00,,,0.02,,2013-07-22 20:43:00,
2013-07-22 16:52:00,83.0,76.0,29.80,North,0,0.0,8.0,80,0.00,,,0.02,,2013-07-22 20:52:00,
2013-07-22 17:01:00,83.0,76.0,29.80,North,0,0.0,8.0,80,0.00,,,0.02,,2013-07-22 21:01:00,
2013-07-22 17:22:00,84.0,77.0,29.79,North,0,0.0,4.0,79,0.00,,,0.02,,2013-07-22 21:22:00,
2013-07-22 17:43:00,86.0,77.0,29.78,South,171,2.0,5.0,74,0.00,,,0.02,,2013-07-22 21:43:00,
2013-07-22 17:52:00,86.0,77.0,29.78,South,171,2.0,5.0,74,0.00,,,0.02,,2013-07-22 21:52:00,
2013-07-22 18:01:00,83.0,75.0,29.78,North,0,0.0,5.0,78,0.00,,,0.02,,2013-07-22 22:01:00,
2013-07-22 18:22:00,83.0,76.0,29.78,SSE,160,1.0,9.0,79,0.00,,,0.02,,2013-07-22 22:22:00,
2013-07-22 18:32:00,83.0,76.0,29.78,SSE,160,1.0,9.0,79,0.00,,,0.02,,2013-07-22 22:32:00,
2013-07-22 18:43:00,83.0,76.0,29.78,SSE,160,1.0,9.0,79,0.00,,,0.02,,2013-07-22 22:43:00,
2013-07-22 18:52:00,83.0,76.0,29.78,SSE,160,1.0,9.0,79,0.00,,,0.02,,2013-07-22 22:52:00,
2013-07-22 19:02:00,82.0,75.0,29.77,South,173,1.0,6.0,80,0.00,,,0.02,,2013-07-22 23:02:00,
2013-07-22 19:11:00,82.0,75.0,29.77,South,173,1.0,6.0,80,0.00,,,0.02,,2013-07-22 23:11:00,
2013-07-22 19:22:00,82.0,75.0,29.77,South,173,1.0,6.0,80,0.00,,,0.02,,2013-07-22 23:22:00,
2013-07-22 19:32:00,82.0,75.0,29.77,South,173,1.0,6.0,80,0.00,,,0.02,,2013-07-22 23:32:00,
2013-07-22 19:43:00,81.0,75.0,29.78,North,0,0.0,5.0,83,0.00,,,0.02,,2013-07-22 23:43:00,
2013-07-22 19:52:00,80.0,75.0,29.77,North,0,0.0,3.0,84,0.00,,,0.02,,2013-07-22 23:52:00,
2013-07-22 20:12:00,79.0,75.0,29.77,North,0,0.0,0.0,87,0.00,,,0.01,,2013-07-23 00:12:00,
2013-07-22 20:22:00,78.0,74.0,29.77,North,0,0.0,2.0,88,0.00,,,0.01,,2013-07-23 00:22:00,
2013-07-22 20:32:00,78.0,74.0,29.77,North,0,0.0,2.0,88,0.00,,,0.01,,2013-07-23 00:32:00,
2013-07-22 20:43:00,78.0,74.0,29.77,North,0,0.0,2.0,88,0.00,,,0.01,,2013-07-23 00:43:00,
2013-07-22 20:52:00,77.0,74.0,29.77,North,0,0.0,0.0,91,0.00,,,0.00,,2013-07-23 00:52:00,
2013-07-22 21:01:00,77.0,74.0,29.77,North,0,0.0,0.0,91,0.00,,,0.00,,2013-07-23 01:01:00,
2013-07-22 21:22:00,76.0,74.0,29.77,North,0,0.0,0.0,93,0.00,,,0.00,,2013-07-23 01:22:00,
2013-07-22 21:32:00,76.0,74.0,29.78,North,0,0.0,0.0,93,0.00,,,0.00,,2013-07-23 01:32:00,
2013-07-22 21:43:00,76.0,74.0,29.77,North,0,0.0,0.0,93,0.00,,,0.00,,2013-07-23 01:43:00,
2013-07-22 21:53:00,76.0,74.0,29.78,North,0,0.0,0.0,94,0.00,,,0.00,,2013-07-23 01:53:00,
2013-07-22 22:02:00,75.0,73.0,29.78,North,0,0.0,0.0,94,0.00,,,0.00,,2013-07-23 02:02:00,
2013-07-22 22:11:00,75.0,73.0,29.78,North,0,0.0,0.0,94,0.00,,,0.00,,2013-07-23 02:11:00,
2013-07-22 22:22:00,75.0,73.0,29.78,North,0,0.0,0.0,95,0.00,,,0.00,,2013-07-23 02:22:00,
2013-07-22 22:33:00,75.0,73.0,29.79,North,0,0.0,0.0,95,0.00,,,0.00,,2013-07-23 02:33:00,
2013-07-22 22:43:00,75.0,73.0,29.79,North,0,0.0,0.0,95,0.00,,,0.00,,2013-07-23 02:43:00,
2013-07-22 22:53:00,75.0,73.0,29.79,SSE,150,1.0,5.0,94,0.00,,,0.00,,2013-07-23 02:53:00,
2013-07-22 23:11:00,76.0,74.0,29.79,SSE,164,2.0,7.0,94,0.00,,,0.00,,2013-07-23 03:11:00,
2013-07-22 23:22:00,76.0,74.0,29.79,North,0,0.0,4.0,93,0.00,,,0.00,,2013-07-23 03:22:00,
2013-07-22 23:33:00,76.0,74.0,29.79,North,0,0.0,4.0,93,0.00,,,0.00,,2013-07-23 03:33:00,
2013-07-22 23:43:00,76.0,74.0,29.79,North,0,0.0,4.0,93,0.00,,,0.00,,2013-07-23 03:43:00,
2013-07-22 23:52:00,76.0,74.0,29.79,North,0,0.0,4.0,93,0.00,,,0.00,,2013-07-23 03:52:00,